GPS BIIF-9 (PRN 26)

Last updated on Thu Dec 26 2024 00:03:09 GMT+0000 (Coordinated Universal Time)

1 40534U 15013A 24360.59493209 .00000066 00000+0 00000+0 0 9992 2 40534 53.2819 226.4678 0096238 33.1898 327.4942 2.00554192 71020
UTC large
Height (km)
Speed (km/s)
/
Latitude / Longitude
Inclination (degrees)
Orbital Period (minutes)
Azimuth
Elevation
Range (km)
Doppler Factor

Next 0 passes for location: London (51.5072 / 0.1276)

Sorry there are no passes over London.